| time (UTC) | temp F | wind direction | speed MPH | gust MPH | rain 1hr in | rain 24hr in | rain mn in | humidity % | barometer mb |
| 20260504201515 | 75 | 236 | 14.0 | 22.0 | 0.00 | 0.00 | 0.00 | 49 | 1003.0 |
| 20260504200026 | 73 | 238 | 11.0 | 24.0 | 0.00 | 0.00 | 0.00 | 51 | 1003.2 |
| 20260504194526 | 73 | 273 | 8.0 | 20.0 | 0.00 | 0.00 | 0.00 | 52 | 1003.3 |
| 20260504193025 | 73 | 238 | 13.0 | 21.0 | 0.00 | 0.00 | 0.00 | 51 | 1003.3 |
| 20260504191541 | 74 | 248 | 10.0 | 18.0 | 0.00 | 0.00 | 0.00 | 51 | 1003.3 |
| 20260504190021 | 74 | 223 | 10.0 | 26.0 | 0.00 | 0.00 | 0.00 | 53 | 1003.3 |
| 20260504184538 | 73 | 237 | 11.0 | 20.0 | 0.00 | 0.00 | 0.00 | 54 | 1003.6 |
| 20260504183028 | 73 | 240 | 11.0 | 21.0 | 0.00 | 0.00 | 0.00 | 54 | 1003.9 |
| 20260504181507 | 72 | 199 | 12.0 | 19.0 | 0.00 | 0.00 | 0.00 | 55 | 1003.8 |
| 20260504180016 | 71 | 224 | 10.0 | 15.0 | 0.00 | 0.00 | 0.00 | 54 | 1004.2 |
| 20260504174518 | 71 | 229 | 11.0 | 18.0 | 0.00 | 0.00 | 0.00 | 52 | 1004.4 |
| 20260504173010 | 71 | 223 | 8.0 | 17.0 | 0.00 | 0.00 | 0.00 | 54 | 1004.7 |
| 20260504171507 | 71 | 228 | 11.0 | 18.0 | 0.00 | 0.00 | 0.00 | 50 | 1004.9 |
| 20260504081504 | 43 | 152 | 1.0 | 2.0 | 0.00 | 0.00 | 0.00 | 81 | 1007.4 |
| 20260504050020 | 45 | 153 | 2.0 | 3.0 | 0.00 | 0.00 | 0.00 | 78 | 1009.9 |
| 20260504044529 | 45 | 160 | 2.0 | 3.0 | 0.00 | 0.00 | 0.00 | 77 | 1009.9 |
| 20260504043026 | 46 | 191 | 3.0 | 6.0 | 0.00 | 0.00 | 0.00 | 77 | 1009.9 |
| 20260504041511 | 46 | 180 | 4.0 | 7.0 | 0.00 | 0.00 | 0.00 | 76 | 1010.0 |
| 20260504040018 | 46 | 173 | 4.0 | 6.0 | 0.00 | 0.00 | 0.00 | 76 | 1010.1 |
| 20260504034522 | 46 | 218 | 3.0 | 7.0 | 0.00 | 0.00 | 0.00 | 75 | 1010.2 |
| 20260504033025 | 47 | 233 | 2.0 | 6.0 | 0.00 | 0.00 | 0.00 | 75 | 1010.4 |
| 20260504031528 | 47 | 178 | 2.0 | 6.0 | 0.00 | 0.00 | 0.00 | 74 | 1010.5 |
| 20260504030014 | 47 | 174 | 3.0 | 6.0 | 0.00 | 0.00 | 0.00 | 74 | 1010.7 |
| 20260504024531 | 48 | 185 | 3.0 | 7.0 | 0.00 | 0.00 | 0.00 | 73 | 1010.9 |
| 20260504023026 | 48 | 174 | 4.0 | 10.0 | 0.00 | 0.00 | 0.00 | 73 | 1011.0 |
| 20260504021528 | 48 | 228 | 4.0 | 8.0 | 0.00 | 0.00 | 0.00 | 73 | 1011.0 |
| 20260504020029 | 48 | 184 | 4.0 | 7.0 | 0.00 | 0.00 | 0.00 | 73 | 1011.1 |
| 20260504014515 | 48 | 157 | 4.0 | 7.0 | 0.00 | 0.00 | 0.00 | 72 | 1011.2 |
| 20260504013003 | 49 | 156 | 4.0 | 9.0 | 0.00 | 0.00 | 0.00 | 71 | 1011.1 |
| 20260504011506 | 49 | 239 | 4.0 | 10.0 | 0.00 | 0.00 | 0.00 | 71 | 1011.2 |
| 20260504010007 | 49 | 219 | 5.0 | 9.0 | 0.00 | 0.00 | 0.00 | 71 | 1011.0 |
| 20260504004512 | 49 | 164 | 5.0 | 9.0 | 0.00 | 0.00 | 0.00 | 70 | 1011.1 |
| 20260504003035 | 50 | 183 | 5.0 | 10.0 | 0.00 | 0.00 | 0.00 | 69 | 1011.2 |
| 20260504001503 | 50 | 215 | 4.0 | 7.0 | 0.00 | 0.00 | 0.00 | 69 | 1011.4 |
| 20260504000005 | 51 | 184 | 4.0 | 10.0 | 0.00 | 0.00 | 0.00 | 69 | 1011.5 |
| 20260503234513 | 51 | 184 | 5.0 | 8.0 | 0.00 | 0.00 | 0.00 | 69 | 1011.7 |
| 20260503233018 | 50 | 210 | 4.0 | 7.0 | 0.00 | 0.00 | 0.00 | 70 | 1011.7 |
| 20260503231522 | 50 | 154 | 2.0 | 9.0 | 0.00 | 0.00 | 0.00 | 70 | 1011.9 |
| 20260503230026 | 50 | 167 | 3.0 | 9.0 | 0.00 | 0.00 | 0.00 | 70 | 1012.0 |
| 20260503224509 | 50 | 153 | 6.0 | 10.0 | 0.00 | 0.00 | 0.00 | 69 | 1012.1 |
| 20260503223012 | 51 | 236 | 4.0 | 10.0 | 0.00 | 0.00 | 0.00 | 68 | 1012.5 |
| 20260503221519 | 51 | 231 | 6.0 | 12.0 | 0.00 | 0.00 | 0.00 | 67 | 1012.7 |
| 20260503220024 | 51 | 222 | 7.0 | 12.0 | 0.00 | 0.00 | 0.00 | 66 | 1012.7 |
| 20260503214525 | 51 | 231 | 4.0 | 12.0 | 0.00 | 0.00 | 0.00 | 67 | 1013.0 |
| 20260503213011 | 52 | 237 | 8.0 | 14.0 | 0.00 | 0.00 | 0.00 | 65 | 1013.1 |
| 20260503211515 | 52 | 231 | 10.0 | 17.0 | 0.00 | 0.00 | 0.00 | 65 | 1013.2 |
| 20260503210020 | 52 | 265 | 8.0 | 20.0 | 0.00 | 0.00 | 0.00 | 64 | 1013.5 |
| 20260503204523 | 53 | 261 | 12.0 | 25.0 | 0.00 | 0.00 | 0.00 | 62 | 1013.6 |
| 20260503203033 | 55 | 279 | 15.0 | 26.0 | 0.00 | 0.00 | 0.00 | 60 | 1013.4 |